Probability
0 0 0 0 0 0 0 0 0 0 0 0 0 0 0 0 0 0 0 0 0 0 0 0 0 0 0 0 0 0 0 0 0 0 0 0 0 0 0 0 0 0 0
0 0 0 0 0 0 0 0 0 0 0 0 0 0 0 0 0 0 0 0 0 0 0 0 0 0 0 0 0 0 0 0 0 0 0 0 0 0 0 0 0 0 0
0 0 0 0 0 0 0 0 0 0 0 0 0 0 0 0 0 0 0 0 0 0 0 0 0 0 0 0 0 0 0 0 0 0 0 0 0 0 0 0 0 0 0
0 0 0 0 0 0 0 0 0 0 0 0 0 0 0 0 0 0 0 0 0 0 0 0 0 0 0 0 0 0 0 0 0 0 0 0 0 0 0 0 0 0 0
0 0 0 0 0 0 0 0 0 0 0 0 0 0 0 0 0 0 0 0 0 0 0 0 0 0 0 0 0 0 0 0 0 0 0 0 0 0 0 0 0 0 0
0 0 0 0 0 0 0 0 0 0 0 0 0 0 0 0 0 0 0 0 0 0 0 0 0 0 0 0 0 0 0 0 0 0 0 0 0 0 0 0 0 0 0
0 0 0 0 0 0 0 0 0 0 0 0 0 0 0 0 0 0 0 0 0 0 0 0 0 0 0 0 0 0 0 0 0 0 0 0 0 0 0 0 0 0 0
0 0 0 0 0 0 0 0 0 0 0 0 0 0 0 0 0 0 0 0 0 0 0 0 0 0 0 0 0 0 0 0 0 0 0 0 0 0 0 0 0 0 0
0 0 0 0 0 0 0 0 0 0 0 0 0 0 0 0 0 0 0 0 0 0 0 0 0 0 0 0 0 0 0 0 0 0 0 0 0 0 0 0 0 0 0
0 0 0 0 0 0 0 0 0 0 0 0 0 0 0 0 0 0 0 0 0 0 0 0 0 0 0 0 0 0 0 0 0 0 0 0 0 0 0 0 0 0 0
0 0 0 0 0 0 0 0 0 0 0 0 0 0 0 0 0 0 0 0 0 0 0 0 0 0 0 0 0 0 0 0 0 0 0 0 0 0 0 0 0 0 0
0 0 0 0 0 0 0 0 0 0 0 0 0 0 0 0 0 0 0 0 0 0 0 0 0 0 0 0 0 0 0 0 0 0 0 0 0 0 0 0 0 0 0
0 0 0 0 0 0 0 0 0 0 0 0 0 0 0 0 0 0 0 0 0 0 0 0 0 0 0 0 0 0 0 0 0 0 0 0 0 0 0 0 0 0 0
0 0 0 0 0 0 0 0 0 0 0 0 0 0 0 0 0 0 0 0 0 0 0 0 0 0 0 0 0 0 0 0 0 0 0 0 0 0 0 0 0 0 0
0 0 0 0 0 0 0 0 0 0 0 0 0 0 0 0 0 0 0 0 0 0 0 0 0 0 0 0 0 0 0 0 0 0 0 0 0 0 0 0 0 0 0
0 0 0 0 0 0 0 0 0 0 0 0 0 0 0 0 0 0 0 0 0 0 0 0 0 0 0 0 0 0 0 0 0 0 0 0 0 0 0 0 0 0 0
0 0 0 0 0 0 0 0 0 0 0 0 0 0 0 0 0 0 0 0 0 0 0 0 0 0 0 0 0 0 0 0 0 0 0 0 0 0 0 0 0 0 0
0 0 0 0 0 0 0 0 0 0 0 0 0 0 0 0 0 0 0 0 0 0 0 0 0 0 0 0 0 0 0 0 0 0 0 0 0 0 0 0 0 0 0
0 0 0 0 0 0 0 0 0 0 0 0 0 0 0 0 0 0 0 0 0 0 0 0 0 0 0 0 0 0 0 0 0 0 0 0 0 0 0 0 0 0 0
0 0 0 0 0 0 0 0 0 0 0 0 0 0 0 0 0 0 0 0 0 0 0 0 0 0 0 0 0 0 0 0 0 0 0 0 0 0 0 0 0 0 0
0 0 0 0 0 0 0 0 0 0 0 0 0 0 0 0 0 0 0 0 0 0 0 0 0 0 0 0 0 0 0 0 0 0 0 0 0 0 0 0 0 0 0
0 0 0 0 0 0 0 0 0 0 0 0 0 0 0 0 0 0 0 0 0 0 0 0 0 0 0 0 0 0 0 0 0 0 0 0 0 0 0 0 0 0 0
0 0 0 0 0 0 0 0 0 0 0 0 0 0 0 0 0 0 0 0 0 0 0 0 0 0 0 0 0 0 0 0 0 0 0 0 0 0 0 0 0 0 0
0 0 0 0 0 0 0 0 0 0 0 0 0 0 0 0 0 0 0 0 0 0 0 0 0 0 0 0 0 0 0 0 0 0 0 0 0 0 0 0 0 0 0
0 0 0 0 0 0 0 0 0 0 0 0 0 0 0 0 0 0 0 0 0 0 0 0 0 0 0 0 0 0 0 0 0 0 0 0 0 0 0 0 0 0 0
0 0 0 0 0 0 0 0 0 0 0 0 0 0 0 0 0 0 0 0 0 0 0 0 0 0 0 0 0 0 0 0 0 0 0 0 0 0 0 0 0 0 0
Height
5772 5769 5766 5762 5759 5756 5752 5748 5744 5740 5735 5729 5724 5720 5716 5713 5710 5708 5706 5705 5704 5705 5705 5706 5706 5707 5708 5710 5712 5714 5718 5721 5724 5727 5729 5732 5734 5736 5737 5738 5739 5741 5742
5761 5759 5756 5753 5750 5747 5744 5740 5736 5732 5728 5723 5718 5714 5710 5706 5703 5700 5698 5696 5695 5695 5696 5697 5698 5699 5700 5703 5705 5707 5711 5714 5718 5721 5723 5726 5728 5729 5730 5731 5732 5734 5736
5749 5747 5745 5742 5740 5737 5734 5731 5728 5725 5721 5716 5712 5708 5704 5701 5698 5695 5692 5690 5689 5688 5689 5689 5690 5692 5694 5697 5699 5702 5705 5708 5712 5715 5717 5719 5721 5723 5724 5726 5727 5729 5730
5736 5734 5733 5731 5729 5727 5725 5722 5719 5716 5713 5710 5706 5702 5699 5696 5692 5690 5687 5685 5684 5683 5683 5684 5685 5686 5689 5691 5693 5696 5699 5703 5706 5709 5711 5713 5715 5717 5719 5721 5722 5724 5726
5721 5720 5719 5718 5717 5716 5714 5712 5710 5708 5705 5702 5699 5696 5693 5690 5687 5685 5683 5681 5680 5679 5679 5679 5680 5682 5684 5686 5688 5691 5695 5698 5701 5704 5706 5709 5711 5713 5715 5717 5718 5720 5721
5705 5704 5703 5703 5702 5703 5702 5701 5700 5698 5696 5694 5692 5689 5687 5685 5682 5680 5678 5677 5676 5676 5675 5675 5676 5678 5680 5682 5684 5687 5691 5694 5697 5700 5702 5704 5706 5708 5710 5712 5714 5715 5716
5688 5687 5686 5686 5686 5686 5687 5687 5687 5687 5686 5684 5683 5682 5680 5678 5676 5675 5674 5672 5672 5672 5672 5672 5673 5674 5676 5678 5681 5684 5687 5690 5694 5696 5699 5701 5703 5704 5706 5708 5709 5710 5710
5668 5666 5666 5666 5666 5667 5669 5671 5672 5673 5673 5674 5673 5673 5672 5671 5670 5669 5668 5667 5667 5667 5667 5668 5669 5670 5672 5675 5677 5680 5684 5687 5690 5692 5695 5697 5699 5700 5702 5703 5703 5704 5704
5642 5641 5642 5642 5644 5645 5648 5651 5654 5657 5659 5661 5662 5663 5663 5663 5663 5662 5662 5662 5662 5662 5663 5663 5665 5667 5669 5671 5674 5677 5680 5683 5686 5689 5691 5693 5695 5696 5697 5698 5698 5698 5698
5615 5615 5616 5617 5619 5622 5625 5630 5635 5640 5644 5646 5649 5652 5653 5655 5655 5656 5656 5656 5657 5657 5658 5659 5661 5663 5666 5668 5671 5674 5677 5681 5684 5686 5688 5690 5691 5692 5693 5693 5693 5693 5692
5588 5589 5591 5594 5596 5599 5603 5608 5614 5621 5627 5632 5636 5640 5643 5645 5647 5648 5650 5651 5652 5653 5654 5655 5657 5660 5662 5665 5669 5672 5675 5678 5681 5684 5685 5687 5688 5689 5689 5689 5688 5688 5687
5565 5568 5572 5575 5578 5581 5584 5588 5595 5602 5610 5617 5623 5628 5632 5636 5638 5641 5643 5645 5647 5648 5650 5651 5654 5657 5660 5663 5667 5670 5673 5676 5679 5681 5683 5684 5685 5685 5685 5685 5685 5684 5682
5550 5554 5558 5561 5563 5566 5568 5572 5578 5585 5593 5602 5610 5616 5622 5627 5630 5633 5636 5638 5641 5644 5646 5648 5651 5654 5658 5661 5665 5668 5671 5674 5676 5678 5680 5681 5682 5683 5683 5682 5682 5680 5679
5540 5543 5546 5548 5550 5551 5553 5556 5561 5569 5577 5588 5597 5605 5612 5618 5622 5626 5629 5632 5636 5639 5642 5645 5648 5651 5655 5659 5662 5666 5668 5671 5673 5675 5677 5679 5680 5680 5680 5679 5678 5677 5675
5527 5530 5532 5534 5536 5537 5539 5541 5546 5554 5564 5574 5585 5594 5603 5610 5615 5620 5624 5627 5631 5635 5638 5642 5645 5648 5652 5656 5660 5663 5665 5668 5670 5672 5674 5676 5677 5677 5676 5675 5674 5673 5672
5512 5515 5518 5520 5522 5524 5527 5529 5534 5541 5552 5563 5574 5585 5595 5602 5608 5614 5619 5623 5627 5631 5635 5639 5642 5646 5650 5653 5657 5660 5662 5665 5667 5669 5671 5672 5673 5673 5672 5672 5670 5669 5667
5496 5499 5503 5506 5509 5512 5515 5518 5524 5532 5542 5555 5566 5577 5586 5594 5602 5608 5614 5619 5623 5628 5632 5635 5639 5642 5646 5650 5653 5656 5659 5661 5664 5666 5667 5668 5668 5669 5668 5668 5667 5665 5664
5479 5483 5488 5492 5496 5500 5504 5508 5515 5524 5535 5548 5561 5571 5580 5588 5596 5603 5609 5615 5620 5625 5629 5632 5636 5639 5643 5646 5649 5652 5655 5657 5660 5661 5662 5663 5664 5664 5664 5663 5662 5661 5660
5461 5467 5473 5479 5484 5490 5495 5501 5509 5520 5532 5544 5556 5566 5575 5583 5591 5599 5606 5611 5616 5621 5625 5629 5633 5636 5639 5642 5645 5648 5651 5653 5655 5657 5657 5658 5658 5659 5659 5658 5657 5656 5655
5444 5452 5460 5467 5474 5481 5488 5496 5506 5517 5529 5541 5553 5563 5572 5581 5589 5596 5603 5608 5614 5618 5622 5626 5630 5633 5636 5639 5642 5644 5646 5649 5650 5651 5652 5652 5653 5653 5653 5652 5652 5650 5649
5431 5440 5448 5457 5466 5474 5482 5492 5504 5515 5527 5539 5551 5561 5571 5580 5588 5594 5600 5606 5611 5616 5620 5624 5627 5630 5632 5635 5638 5640 5642 5643 5645 5646 5646 5647 5646 5646 5646 5646 5645 5644 5643
5423 5432 5441 5451 5460 5470 5480 5492 5504 5516 5528 5539 5550 5559 5568 5577 5584 5591 5598 5603 5609 5614 5618 5621 5624 5626 5628 5631 5633 5635 5636 5638 5639 5640 5640 5640 5640 5639 5639 5639 5638 5637 5636
5420 5429 5438 5448 5459 5470 5481 5494 5506 5518 5529 5540 5549 5559 5567 5575 5583 5590 5596 5601 5607 5611 5615 5618 5620 5622 5624 5626 5628 5630 5631 5632 5633 5633 5634 5634 5633 5633 5632 5632 5631 5630 5629
5421 5430 5439 5450 5462 5474 5486 5498 5510 5521 5532 5541 5551 5559 5567 5574 5581 5588 5594 5599 5604 5608 5611 5613 5616 5618 5620 5621 5623 5624 5625 5626 5627 5627 5627 5627 5627 5626 5626 5625 5624 5623 5622
5427 5435 5446 5457 5469 5481 5493 5505 5515 5525 5534 5543 5552 5560 5567 5574 5580 5586 5592 5596 5600 5604 5607 5609 5611 5613 5615 5616 5617 5618 5620 5620 5621 5621 5621 5621 5621 5620 5620 5619 5618 5617 5616
5438 5447 5458 5469 5480 5491 5502 5511 5520 5529 5537 5546 5553 5561 5567 5573 5579 5585 5590 5594 5597 5600 5602 5604 5606 5608 5610 5611 5612 5613 5614 5615 5615 5615 5615 5615 5614 5614 5613 5612 5611 5610 5609
Wind_Speed
37 37 39 40 41 41 40 39 38 38 39 39 37 33 31 30 30 29 30 31 32 33 33 32 31 30 30 29 28 27 26 25 24 25 25 25 26 29 31 33 34 33 35
41 40 40 42 42 41 40 39 38 38 38 38 37 33 31 29 27 26 26 26 27 27 27 27 27 26 25 25 26 26 26 27 26 26 26 27 28 30 31 31 30 28 28
46 45 43 43 42 41 40 39 38 38 38 37 35 33 30 28 27 25 24 23 22 22 22 23 24 24 24 25 27 27 28 29 28 28 27 28 28 27 25 24 22 22 21
52 50 47 44 43 43 42 41 39 38 38 37 34 32 30 28 26 25 23 21 20 20 20 21 23 24 25 27 29 29 29 29 28 26 25 23 22 20 18 17 17 18 20
58 56 51 48 46 45 45 44 42 40 39 37 34 32 30 28 26 24 22 20 19 19 20 20 21 23 24 25 26 26 25 23 22 20 18 17 16 15 15 15 16 17 19
60 58 55 54 52 50 49 47 46 43 40 38 34 32 29 28 25 23 21 18 18 19 20 20 20 20 21 20 19 18 17 16 15 16 17 16 15 14 14 14 15 16 19
64 64 63 61 59 57 54 51 47 45 42 39 35 32 29 27 25 23 21 18 18 19 19 19 19 18 17 17 16 16 16 16 16 16 15 14 13 12 13 14 15 17 18
73 72 71 69 65 62 58 53 49 46 43 41 36 32 29 26 24 22 20 18 18 19 18 17 17 16 16 16 16 16 15 15 14 13 12 11 11 11 12 13 14 15 17
79 77 75 71 67 63 59 55 51 48 45 42 37 32 29 26 24 21 19 18 17 17 17 16 16 15 16 16 15 15 15 13 12 10 10 9 9 10 10 12 13 15 17
79 75 70 65 60 57 55 53 51 49 46 43 39 33 29 27 23 21 18 17 16 15 14 14 14 14 14 15 15 14 13 12 11 10 9 8 8 8 9 10 12 13 14
68 61 54 48 45 44 45 47 48 47 46 43 39 34 30 27 24 21 19 18 15 14 13 13 13 13 14 14 14 13 12 12 11 10 8 7 6 5 6 8 9 10 11
44 38 35 32 31 34 36 40 44 45 44 42 40 35 31 28 24 21 19 18 16 14 14 14 15 15 14 13 13 13 13 12 11 9 8 6 4 4 4 5 6 7 9
30 28 27 28 29 30 33 37 41 43 41 41 40 35 32 28 25 22 20 19 18 17 15 15 15 15 14 13 14 14 14 13 11 9 7 5 4 3 3 3 4 6 9
29 29 30 31 31 31 32 34 40 44 40 39 39 35 32 28 24 21 20 19 19 19 17 16 15 15 14 14 15 15 14 13 12 10 8 7 6 4 3 1 3 6 9
36 34 34 34 33 32 31 32 38 45 43 40 38 35 31 27 24 22 20 19 20 20 19 17 15 15 16 15 15 14 14 13 12 11 10 8 7 6 4 3 3 5 8
40 39 37 35 34 33 30 31 37 44 44 41 39 35 31 29 27 24 22 20 20 20 19 17 16 16 16 16 15 14 14 13 13 13 11 10 8 7 6 5 4 5 8
40 38 37 35 33 31 29 29 37 43 44 42 40 37 34 31 28 26 23 21 21 20 18 17 17 17 17 16 15 15 15 15 15 14 13 11 9 8 7 6 6 7 9
39 37 35 32 31 29 27 28 35 40 43 42 40 38 35 32 30 28 24 22 20 19 18 18 17 17 16 16 16 16 16 16 16 16 15 13 11 10 9 9 10 11 12
36 34 32 30 29 27 26 27 34 39 43 43 41 37 34 33 32 29 25 22 20 19 18 17 17 16 15 15 16 16 16 16 17 17 16 16 15 13 13 14 15 16 16
32 32 31 29 27 26 26 29 36 41 44 42 41 37 34 32 30 26 24 22 20 18 17 16 15 15 14 14 15 15 15 15 17 18 19 19 19 18 18 18 19 20 20
28 29 29 27 26 26 27 33 38 41 43 42 39 35 32 31 29 26 24 22 20 18 17 15 14 14 14 14 15 15 16 17 18 20 21 22 22 22 23 23 23 23 22
24 25 26 26 27 28 32 37 41 43 41 41 38 35 33 32 31 28 25 23 20 18 17 15 15 15 15 16 17 17 18 19 20 21 22 22 23 24 25 25 25 24 22
21 23 25 27 29 32 36 40 42 42 42 40 37 34 32 30 28 27 25 23 20 18 16 16 17 18 18 18 18 18 19 21 21 22 22 22 23 24 25 26 25 24 23
19 24 28 31 34 37 40 41 41 40 40 38 34 31 29 28 26 25 24 21 18 17 16 17 18 19 20 20 20 20 20 21 21 21 21 22 23 24 25 25 24 23 22
26 32 36 38 39 41 41 40 38 37 36 34 32 29 27 25 24 23 21 19 17 16 16 17 18 19 20 20 20 20 20 19 20 20 21 22 22 23 23 22 22 21 21
37 40 41 43 43 41 39 37 35 33 32 31 29 26 24 23 22 20 19 17 16 15 15 16 17 18 18 19 18 17 17 17 17 18 19 20 21 21 20 19 19 19 20
Wind_Direction
304 305 306 307 308 309 310 313 315 318 322 323 320 315 310 304 296 289 280 273 269 267 266 264 263 261 257 252 248 243 240 236 232 234 236 241 247 247 247 248 248 247 245
301 303 305 306 306 306 308 309 311 314 317 319 319 316 313 309 303 297 289 278 271 267 264 260 256 253 248 242 238 233 231 226 227 237 244 250 253 251 250 250 248 247 248
298 300 302 302 302 303 304 306 309 311 313 315 315 314 312 310 308 304 294 281 271 265 260 255 249 243 239 235 232 230 232 231 235 239 244 249 248 247 247 248 248 248 248
295 296 297 298 298 299 301 303 306 307 308 310 311 309 309 308 307 305 296 282 269 260 251 245 237 233 233 227 226 228 231 231 232 236 241 241 240 240 244 248 250 251 253
291 291 293 294 296 297 297 299 301 302 303 303 305 303 303 303 303 302 296 280 264 253 244 235 226 219 219 219 218 222 226 230 230 229 230 231 233 237 243 247 253 257 260
287 287 289 291 293 293 292 293 294 295 296 296 296 296 296 297 297 297 295 278 263 257 249 237 228 223 218 213 210 210 213 214 215 220 226 230 235 240 246 254 261 267 270
285 285 287 289 289 288 287 286 286 287 287 287 287 287 287 289 290 289 287 279 264 260 252 241 234 230 223 215 210 207 207 209 214 220 226 232 239 249 260 269 274 276 275
283 284 284 284 284 283 281 279 278 278 278 278 278 278 278 280 281 281 280 277 265 255 247 242 237 230 223 218 214 209 207 207 210 217 226 237 251 262 269 272 275 276 278
281 281 282 281 280 278 275 272 269 268 267 268 268 268 268 270 272 272 273 270 260 247 241 236 233 230 229 221 214 209 206 205 206 217 232 244 254 262 268 272 276 281 284
282 282 281 280 277 273 268 263 259 259 257 257 258 258 258 260 262 261 263 261 253 243 236 230 223 221 219 212 206 203 200 202 206 215 226 237 247 258 267 276 284 289 293
280 279 276 273 270 267 263 255 248 247 247 249 250 250 250 251 252 251 252 248 241 231 221 213 208 205 201 196 193 194 194 195 199 207 215 225 237 256 278 292 300 307 312
273 267 262 261 264 265 262 253 239 235 236 240 243 243 243 243 244 243 241 235 224 211 205 198 193 189 188 191 194 194 193 196 201 205 207 210 232 268 291 304 317 329 336
263 257 258 262 269 274 268 254 238 229 225 232 236 236 234 235 236 235 232 225 212 203 199 194 191 190 193 197 195 194 197 204 207 205 203 209 230 255 282 309 340 354 354
268 265 266 269 272 276 271 257 239 225 219 222 229 227 225 226 227 225 221 214 202 196 194 192 192 193 195 196 196 200 207 210 210 209 209 216 231 239 249 286 349 358 357
274 271 269 269 272 272 268 257 238 223 217 214 216 214 215 217 217 214 208 201 194 192 193 194 194 196 198 200 204 209 212 213 213 213 214 223 234 240 251 269 327 352 357
272 271 268 268 269 267 263 253 236 222 212 206 204 201 203 207 208 204 199 193 189 190 194 197 197 198 202 206 210 213 215 216 217 219 221 228 237 248 259 273 304 335 345
269 267 265 264 263 260 258 246 230 219 208 199 196 194 198 202 201 197 193 190 190 192 196 199 200 203 207 211 215 217 219 222 226 228 230 234 240 252 264 278 297 317 329
263 261 259 256 255 252 248 235 223 212 200 192 190 192 195 196 194 192 190 190 192 196 199 202 204 207 211 216 221 223 224 228 234 237 238 240 244 254 266 279 292 304 316
255 251 247 246 244 238 232 224 213 202 192 186 187 190 193 192 189 188 188 190 192 195 198 202 206 211 216 220 222 223 226 232 239 244 245 247 251 260 271 283 292 298 306
243 238 234 232 229 224 219 209 200 194 186 184 185 187 189 188 186 185 188 191 194 195 197 201 207 214 220 223 224 227 230 237 245 249 251 252 257 264 272 281 290 297 301
229 222 220 218 215 209 203 193 189 186 181 181 182 184 184 184 183 185 188 192 194 195 199 205 214 224 231 233 235 236 239 244 249 252 254 256 260 267 274 280 287 293 297
213 207 205 201 196 191 186 182 182 179 177 178 181 183 184 186 187 188 190 194 198 200 206 216 227 237 244 246 246 246 247 250 253 255 257 260 265 270 276 281 286 289 291
193 192 187 181 177 174 173 173 174 175 175 178 182 184 186 187 189 191 193 196 199 206 215 226 235 242 248 250 249 247 247 251 256 259 261 265 269 274 278 283 285 287 288
168 167 165 162 160 161 163 167 170 170 173 177 179 181 183 186 188 191 194 198 204 214 225 234 240 245 249 250 247 245 246 252 256 260 263 268 272 277 281 284 285 285 285
142 144 146 148 150 153 157 162 165 167 171 174 176 176 179 182 186 190 195 202 210 219 230 239 245 246 247 245 244 245 249 254 257 261 266 271 275 279 282 284 285 286 288
130 133 138 142 145 150 155 159 162 165 168 171 172 174 178 182 187 192 198 203 211 225 239 245 244 243 243 243 244 247 252 257 261 265 269 273 277 281 284 287 290 291 293